Torna al catalogo

STARLINK-4031

AttivoComunicazioniVLEO
NORAD 52679·PAYLOAD·🇺🇸 United States

Lanciato May 18, 2022 da Cape Canaveral Space Force Station

Loading…

Prossimi Passaggi (prossime 24 ore)

TLE

AggiornatoSource: CelesTrak SupGP

Epoca: Sep 15, 2026, 01:38 UTC

1 52679C 22053Z   26258.06854167  .00314950  00000+0  12120-1 0  2587
2 52679  53.1592  12.3226 0001154  89.8034 110.3007 15.25691060    13

Traccia STARLINK-4031 in tempo reale con AllMySat

Download on the App Store